Flag for U.S.A. Weather past 2 weeks in Pasadena, Texas, U.S.A.

Now
77 °F

Broken clouds.


Feels Like: 78 °F
Forecast: 72 / 83 °F
Wind: 9 mph from Northeast

Location: Houston / Ellington

Current Time: Apr 26, 2015 at 12:57:55 PM

Latest Report: Apr 26, 2015 at 11:50 AM


Visibility: 8 mi

Pressure: 29.74 "Hg

Humidity: 89%

Dew point: 73 °F

Location of PasadenaLocation

Historic Weather in Pasadena — Graph

°F

Pasadena temperature yesterday

Maximum temperature yesterday: 82 °F (at 4:50 PM)
Minimum temperature yesterday: 68 °F (at 8:50 AM)
Average temperature yesterday: 75 °F

Past Weeks' High & Low Weather Summary

 TemperatureHumidityPressure
High86 °F (Apr 13, 4:50 PM)100% (Apr 11, 10:50 PM)30.10 "Hg (Apr 11, 10:50 PM)
Low61 °F (Apr 21, 6:50 AM)31% (Apr 20, 2:50 PM)28.75 "Hg (Apr 24, 7:50 PM)
Average73 °F83%29.91 "Hg
* Reported Apr 11 11:50 AM — Apr 26 11:50 AM, Pasadena, Weather by CustomWeather, © 2015

Note: Actual official high and low records may vary slightly from our data, if they occured in-between our weather recording intervals... More about our weather records

Advertising

Pasadena weather history for previous 24 hours

 ConditionsComfort  
Time TempWeatherWind HumidityBarometerVisibility
11:50 AM
Sun, Apr 26
77 °FBroken clouds.9 mph89%29.74 "Hg8 mi
10:50 AM75 °FFog.7 mph94%29.78 "Hg5 mi
9:50 AM75 °FFog.3 mph94%29.78 "Hg5 mi
8:50 AM73 °FFog.6 mph94%29.76 "Hg5 mi
7:50 AM73 °FFog.No wind94%29.74 "Hg5 mi
6:50 AM73 °FFog.No wind94%29.75 "Hg5 mi
5:50 AM72 °FFog.5 mph94%29.73 "Hg5 mi
4:50 AM72 °FFog.9 mph94%29.71 "Hg3 mi
3:50 AM72 °FFog.6 mph94%29.72 "Hg0 mi
2:50 AM72 °FFog.6 mph94%29.72 "Hg0 mi
2:20 AM70 °FFog.3 mph94%29.74 "Hg1 mi
1:50 AM70 °FFog.3 mph94%29.74 "Hg3 mi
12:50 AM70 °FPassing clouds.No wind94%29.76 "Hg10 mi
11:50 PM
Sat, Apr 25
70 °FPassing clouds.3 mph94%29.75 "Hg10 mi
10:50 PM72 °FPassing clouds.5 mph88%29.77 "Hg10 mi
9:50 PM73 °FPassing clouds.3 mph83%29.76 "Hg10 mi
8:50 PM73 °FPartly sunny.6 mph89%29.74 "Hg10 mi
7:50 PM77 °FScattered clouds.7 mph79%29.73 "Hg10 mi
6:50 PM79 °FPassing clouds.8 mph74%29.73 "Hg10 mi
5:50 PM81 °FPassing clouds.8 mph74%29.74 "Hg10 mi
4:50 PM82 °FPassing clouds.8 mph70%29.74 "Hg10 mi
3:50 PM81 °FScattered clouds.8 mph74%29.75 "Hg10 mi
2:50 PM79 °FPartly sunny.14 mph79%29.78 "Hg10 mi
1:50 PM79 °FPartly sunny.12 mph84%29.79 "Hg10 mi
12:50 PM77 °FPartly sunny.6 mph89%29.78 "Hg7 mi
Weather by CustomWeather, © 2015

See weather overviewHow to use our weather pages